Date Time,iGrav31_week_Neck-T1
2024/02/08 00:00:00, 40.334396
2024/02/08 00:01:00, 40.794077
2024/02/08 00:02:00, 40.690107
2024/02/08 00:03:00, 40.752375
2024/02/08 00:04:00, 40.704556
2024/02/08 00:05:00, 40.767373
2024/02/08 00:06:00, 40.734170
2024/02/08 00:07:00, 40.745131
2024/02/08 00:08:00, 40.735546
2024/02/08 00:09:00, 40.741513
2024/02/08 00:10:00, 40.730654
2024/02/08 00:11:00, 40.743055
2024/02/08 00:12:00, 40.733352
2024/02/08 00:13:00, 40.739028
2024/02/08 00:14:00, 40.738880
2024/02/08 00:15:00, 40.753204
2024/02/08 00:16:00, 40.726344
2024/02/08 00:17:00, 40.746960
2024/02/08 00:18:00, 40.731885
2024/02/08 00:19:00, 40.741761
2024/02/08 00:20:00, 40.710966
2024/02/08 00:21:00, 40.718082
2024/02/08 00:22:00, 40.715763
2024/02/08 00:23:00, 40.765587
2024/02/08 00:24:00, 40.741473
2024/02/08 00:25:00, 40.737182
2024/02/08 00:26:00, 40.712689
2024/02/08 00:27:00, 40.709314
2024/02/08 00:28:00, 40.709013
2024/02/08 00:29:00, 40.727054
2024/02/08 00:30:00, 40.721177
2024/02/08 00:31:00, 40.727292
2024/02/08 00:32:00, 40.731820
2024/02/08 00:33:00, 40.728507
2024/02/08 00:34:00, 40.707095
2024/02/08 00:35:00, 40.700770
2024/02/08 00:36:00, 40.686187
2024/02/08 00:37:00, 40.699812
2024/02/08 00:38:00, 40.699473
2024/02/08 00:39:00, 40.699710
2024/02/08 00:40:00, 40.694413
2024/02/08 00:41:00, 40.703247
2024/02/08 00:42:00, 40.711442
2024/02/08 00:43:00, 40.706429
2024/02/08 00:44:00, 40.683698
2024/02/08 00:45:00, 40.683015
2024/02/08 00:46:00, 40.670714
2024/02/08 00:47:00, 40.687940
2024/02/08 00:48:00, 40.668485
2024/02/08 00:49:00, 40.687684
2024/02/08 00:50:00, 40.703664
2024/02/08 00:51:00, 40.684449
2024/02/08 00:52:00, 40.669483
2024/02/08 00:53:00, 40.679429
2024/02/08 00:54:00, 40.664219
2024/02/08 00:55:00, 40.661242
2024/02/08 00:56:00, 40.657319
2024/02/08 00:57:00, 40.665400
2024/02/08 00:58:00, 40.667525
2024/02/08 00:59:00, 40.664073
2024/02/08 01:00:00, 40.653172
2024/02/08 01:01:00, 40.643238
2024/02/08 01:02:00, 40.653099
2024/02/08 01:03:00, 40.671259
2024/02/08 01:04:00, 40.680985
2024/02/08 01:05:00, 40.677668
2024/02/08 01:06:00, 40.688836
2024/02/08 01:07:00, 40.701148
2024/02/08 01:08:00, 40.693176
2024/02/08 01:09:00, 40.700905
2024/02/08 01:10:00, 40.697231
2024/02/08 01:11:00, 40.713053
2024/02/08 01:12:00, 40.698070
2024/02/08 01:13:00, 40.716149
2024/02/08 01:14:00, 40.709861
2024/02/08 01:15:00, 40.714906
2024/02/08 01:16:00, 40.707447
2024/02/08 01:17:00, 40.681041
2024/02/08 01:18:00, 40.661160
2024/02/08 01:19:00, 40.664779
2024/02/08 01:20:00, 40.665597
2024/02/08 01:21:00, 40.700903
2024/02/08 01:22:00, 40.700101
2024/02/08 01:23:00, 40.700868
2024/02/08 01:24:00, 40.689492
2024/02/08 01:25:00, 40.703029
2024/02/08 01:26:00, 40.679329
2024/02/08 01:27:00, 40.686467
2024/02/08 01:28:00, 40.689878
2024/02/08 01:29:00, 40.703476
2024/02/08 01:30:00, 40.705399
2024/02/08 01:31:00, 40.687978
2024/02/08 01:32:00, 40.681124
2024/02/08 01:33:00, 40.689483
2024/02/08 01:34:00, 40.697346
2024/02/08 01:35:00, 40.708253
2024/02/08 01:36:00, 40.695702
2024/02/08 01:37:00, 40.693262
2024/02/08 01:38:00, 40.677836
2024/02/08 01:39:00, 40.678235
2024/02/08 01:40:00, 40.699224
2024/02/08 01:41:00, 40.684375
2024/02/08 01:42:00, 40.664704
2024/02/08 01:43:00, 40.672977
2024/02/08 01:44:00, 40.659614
2024/02/08 01:45:00, 40.682932
2024/02/08 01:46:00, 40.682121
2024/02/08 01:47:00, 40.702202
2024/02/08 01:48:00, 40.689998
2024/02/08 01:49:00, 40.680820
2024/02/08 01:50:00, 40.683077
2024/02/08 01:51:00, 40.702504
2024/02/08 01:52:00, 40.712603
2024/02/08 01:53:00, 40.698589
2024/02/08 01:54:00, 40.692384
2024/02/08 01:55:00, 40.691998
2024/02/08 01:56:00, 40.684594
2024/02/08 01:57:00, 40.676935
2024/02/08 01:58:00, 40.672979
2024/02/08 01:59:00, 40.689681
2024/02/08 02:00:00, 40.658290
2024/02/08 02:01:01, 40.652271
2024/02/08 02:02:01, 40.630861
2024/02/08 02:03:01, 40.611266
2024/02/08 02:04:01, 40.596171
2024/02/08 02:05:01, 40.598933
2024/02/08 02:06:01, 40.621299
2024/02/08 02:07:01, 40.606328
2024/02/08 02:08:01, 40.616928
2024/02/08 02:09:01, 40.581380
2024/02/08 02:10:01, 40.579374
2024/02/08 02:11:01, 40.569388
2024/02/08 02:12:01, 40.552387
2024/02/08 02:13:01, 40.563746
2024/02/08 02:14:01, 40.562472
2024/02/08 02:15:01, 40.566638
2024/02/08 02:16:01, 40.568471
2024/02/08 02:17:01, 40.575828
2024/02/08 02:18:01, 40.578323
2024/02/08 02:19:01, 40.583599
2024/02/08 02:20:01, 40.577910
2024/02/08 02:21:01, 40.588496
2024/02/08 02:22:01, 40.566246
2024/02/08 02:23:01, 40.565408
2024/02/08 02:24:01, 40.549217
2024/02/08 02:25:01, 40.557129
2024/02/08 02:26:01, 40.572433
2024/02/08 02:27:01, 40.596621
2024/02/08 02:28:01, 40.601905
2024/02/08 02:29:01, 40.579599
2024/02/08 02:30:01, 40.587268
2024/02/08 02:31:01, 40.585830
2024/02/08 02:32:01, 40.582703
2024/02/08 02:33:01, 40.606350
2024/02/08 02:34:01, 40.582454
2024/02/08 02:35:01, 40.576291
2024/02/08 02:36:01, 40.561392
2024/02/08 02:37:01, 40.567506
2024/02/08 02:38:01, 40.563364
2024/02/08 02:39:01, 40.578505
2024/02/08 02:40:01, 40.583754
2024/02/08 02:41:01, 40.592167
2024/02/08 02:42:01, 40.578702
2024/02/08 02:43:01, 40.587606
2024/02/08 02:44:01, 40.578157
2024/02/08 02:45:01, 40.560772
2024/02/08 02:46:01, 40.563418
2024/02/08 02:47:01, 40.555810
2024/02/08 02:48:01, 40.538786
2024/02/08 02:49:01, 40.538473
2024/02/08 02:50:01, 40.540686
2024/02/08 02:51:01, 40.547972
2024/02/08 02:52:01, 40.545707
2024/02/08 02:53:01, 40.569724
2024/02/08 02:54:01, 40.560428
2024/02/08 02:55:01, 40.546138
2024/02/08 02:56:01, 40.553168
2024/02/08 02:57:01, 40.549266
2024/02/08 02:58:01, 40.537540
2024/02/08 02:59:01, 40.560967
2024/02/08 03:00:01, 40.568585
2024/02/08 03:01:01, 40.579660
2024/02/08 03:02:01, 40.592946
2024/02/08 03:03:01, 40.565362
2024/02/08 03:04:01, 40.553231
2024/02/08 03:05:01, 40.557399
2024/02/08 03:06:01, 40.561247
2024/02/08 03:07:01, 40.586155
2024/02/08 03:08:01, 40.577103
2024/02/08 03:09:01, 40.561248
2024/02/08 03:10:01, 40.563491
2024/02/08 03:11:01, 40.571978
2024/02/08 03:12:01, 40.583093
2024/02/08 03:13:01, 40.588745
2024/02/08 03:14:01, 40.569365
2024/02/08 03:15:01, 40.552690
2024/02/08 03:16:01, 40.562021
2024/02/08 03:17:01, 40.579735
2024/02/08 03:18:01, 40.573016
2024/02/08 03:19:01, 40.583570
2024/02/08 03:20:01, 40.581999
2024/02/08 03:21:01, 40.571630
2024/02/08 03:22:01, 40.569368
2024/02/08 03:23:01, 40.557168
2024/02/08 03:24:01, 40.564337
2024/02/08 03:25:01, 40.592975
2024/02/08 03:26:01, 40.581427
2024/02/08 03:27:01, 40.569594
2024/02/08 03:28:01, 40.563657
2024/02/08 03:29:01, 40.568547
2024/02/08 03:30:01, 40.582927
2024/02/08 03:31:01, 40.576115
2024/02/08 03:32:01, 40.574045
2024/02/08 03:33:01, 40.551035
2024/02/08 03:34:01, 40.560156
2024/02/08 03:35:01, 40.555612
2024/02/08 03:36:01, 40.540478
2024/02/08 03:37:01, 40.540105
2024/02/08 03:38:01, 40.563541
2024/02/08 03:39:01, 40.566286
2024/02/08 03:40:01, 40.541432
2024/02/08 03:41:01, 40.523225
2024/02/08 03:42:01, 40.521916
2024/02/08 03:43:01, 40.521388
2024/02/08 03:44:01, 40.541088
2024/02/08 03:45:01, 40.551808
2024/02/08 03:46:01, 40.568014
2024/02/08 03:47:01, 40.560506
2024/02/08 03:48:01, 40.571908
2024/02/08 03:49:01, 40.580478
2024/02/08 03:50:01, 40.597737
2024/02/08 03:51:01, 40.588915
2024/02/08 03:52:01, 40.576083
2024/02/08 03:53:01, 40.550375
2024/02/08 03:54:01, 40.546617
2024/02/08 03:55:01, 40.554280
2024/02/08 03:56:01, 40.577233
2024/02/08 03:57:01, 40.567821
2024/02/08 03:58:01, 40.555728
2024/02/08 03:59:01, 40.550305
2024/02/08 04:00:01, 40.558464
2024/02/08 04:01:02, 40.537395
2024/02/08 04:02:02, 40.526713
2024/02/08 04:03:02, 40.527106
2024/02/08 04:04:02, 40.540604
2024/02/08 04:05:02, 40.535235
2024/02/08 04:06:02, 40.525822
2024/02/08 04:07:02, 40.518540
2024/02/08 04:08:02, 40.522476
2024/02/08 04:09:02, 40.533146
2024/02/08 04:10:02, 40.530102
2024/02/08 04:11:02, 40.524339
2024/02/08 04:12:02, 40.521606
2024/02/08 04:13:02, 40.527718
2024/02/08 04:14:02, 40.521299
2024/02/08 04:15:02, 40.530193
2024/02/08 04:16:02, 40.548281
2024/02/08 04:17:02, 40.547521
2024/02/08 04:18:02, 40.538865
2024/02/08 04:19:02, 40.560844
2024/02/08 04:20:02, 40.555483
2024/02/08 04:21:02, 40.554479
2024/02/08 04:22:02, 40.547992
2024/02/08 04:23:02, 40.543487
2024/02/08 04:24:02, 40.538183
2024/02/08 04:25:02, 40.548715
2024/02/08 04:26:02, 40.536066
2024/02/08 04:27:02, 40.550377
2024/02/08 04:28:02, 40.548612
2024/02/08 04:29:02, 40.574446
2024/02/08 04:30:02, 40.568598
2024/02/08 04:31:02, 40.554104
2024/02/08 04:32:02, 40.524449
2024/02/08 04:33:02, 40.501830
2024/02/08 04:34:02, 40.501326
2024/02/08 04:35:02, 40.526305
2024/02/08 04:36:02, 40.530954
2024/02/08 04:37:02, 40.515856
2024/02/08 04:38:02, 40.524932
2024/02/08 04:39:02, 40.541009
2024/02/08 04:40:02, 40.526059
2024/02/08 04:41:02, 40.512288
2024/02/08 04:42:02, 40.495075
2024/02/08 04:43:02, 40.491156
2024/02/08 04:44:02, 40.501603
2024/02/08 04:45:02, 40.512064
2024/02/08 04:46:02, 40.509223
2024/02/08 04:47:02, 40.499340
2024/02/08 04:48:02, 40.509922
2024/02/08 04:49:02, 40.487664
2024/02/08 04:50:02, 40.477048
2024/02/08 04:51:02, 40.481217
2024/02/08 04:52:02, 40.505878
2024/02/08 04:53:02, 40.512016
2024/02/08 04:54:02, 40.516600
2024/02/08 04:55:02, 40.509973
2024/02/08 04:56:02, 40.496239
2024/02/08 04:57:02, 40.497305
2024/02/08 04:58:02, 40.507104
2024/02/08 04:59:02, 40.498326
2024/02/08 05:00:02, 40.486213
2024/02/08 05:01:02, 40.483821
2024/02/08 05:02:02, 40.477399
2024/02/08 05:03:02, 40.484752
2024/02/08 05:04:02, 40.492884
2024/02/08 05:05:02, 40.497523
2024/02/08 05:06:02, 40.481139
2024/02/08 05:07:02, 40.465610
2024/02/08 05:08:02, 40.475757
2024/02/08 05:09:02, 40.484515
2024/02/08 05:10:02, 40.501136
2024/02/08 05:11:02, 40.483807
2024/02/08 05:12:02, 40.492391
2024/02/08 05:13:02, 40.493668
2024/02/08 05:14:02, 40.480672
2024/02/08 05:15:02, 40.484603
2024/02/08 05:16:02, 40.491488
2024/02/08 05:17:02, 40.492822
2024/02/08 05:18:02, 40.499042
2024/02/08 05:19:02, 40.479523
2024/02/08 05:20:02, 40.487832
2024/02/08 05:21:02, 40.495918
2024/02/08 05:22:02, 40.494125
2024/02/08 05:23:02, 40.491235
2024/02/08 05:24:02, 40.485904
2024/02/08 05:25:02, 40.483607
2024/02/08 05:26:02, 40.468840
2024/02/08 05:27:02, 40.485142
2024/02/08 05:28:02, 40.478924
2024/02/08 05:29:02, 40.461519
2024/02/08 05:30:02, 40.452864
2024/02/08 05:31:02, 40.454314
2024/02/08 05:32:02, 40.475645
2024/02/08 05:33:02, 40.490254
2024/02/08 05:34:02, 40.495016
2024/02/08 05:35:02, 40.506356
2024/02/08 05:36:02, 40.497321
2024/02/08 05:37:02, 40.481188
2024/02/08 05:38:02, 40.464584
2024/02/08 05:39:02, 40.481421
2024/02/08 05:40:02, 40.480958
2024/02/08 05:41:02, 40.498851
2024/02/08 05:42:02, 40.503837
2024/02/08 05:43:02, 40.482198
2024/02/08 05:44:02, 40.468917
2024/02/08 05:45:02, 40.463603
2024/02/08 05:46:02, 40.469316
2024/02/08 05:47:02, 40.469961
2024/02/08 05:48:02, 40.491345
2024/02/08 05:49:02, 40.492408
2024/02/08 05:50:02, 40.498363
2024/02/08 05:51:02, 40.483914
2024/02/08 05:52:02, 40.481684
2024/02/08 05:53:02, 40.478158
2024/02/08 05:54:02, 40.486706
2024/02/08 05:55:02, 40.494926
2024/02/08 05:56:02, 40.487115
2024/02/08 05:57:02, 40.488287
2024/02/08 05:58:02, 40.477200
2024/02/08 05:59:02, 40.465222
2024/02/08 06:00:02, 40.457410
2024/02/08 06:01:03, 40.469802
2024/02/08 06:02:03, 40.479831
2024/02/08 06:03:03, 40.466468
2024/02/08 06:04:03, 40.469348
2024/02/08 06:05:03, 40.442865
2024/02/08 06:06:03, 40.444190
2024/02/08 06:07:03, 40.428063
2024/02/08 06:08:03, 40.449653
2024/02/08 06:09:03, 40.439394
2024/02/08 06:10:03, 40.455231
2024/02/08 06:11:03, 40.465520
2024/02/08 06:12:03, 40.436510
2024/02/08 06:13:03, 40.445414
2024/02/08 06:14:03, 40.454369
2024/02/08 06:15:03, 40.435779
2024/02/08 06:16:03, 40.422260
2024/02/08 06:17:03, 40.444761
2024/02/08 06:18:03, 40.439631
2024/02/08 06:19:03, 40.434638
2024/02/08 06:20:03, 40.429654
2024/02/08 06:21:03, 40.425116
2024/02/08 06:22:03, 40.426643
2024/02/08 06:23:03, 40.412247
2024/02/08 06:24:03, 40.419929
2024/02/08 06:25:03, 40.432127
2024/02/08 06:26:03, 40.429761
2024/02/08 06:27:03, 40.435712
2024/02/08 06:28:03, 40.436830
2024/02/08 06:29:03, 40.421558
2024/02/08 06:30:03, 40.433076
2024/02/08 06:31:03, 40.444351
2024/02/08 06:32:03, 40.421518
2024/02/08 06:33:03, 40.427773
2024/02/08 06:34:03, 40.424421
2024/02/08 06:35:03, 40.417868
2024/02/08 06:36:03, 40.415920
2024/02/08 06:37:03, 40.425319
2024/02/08 06:38:03, 40.421818
2024/02/08 06:39:03, 40.435362
2024/02/08 06:40:03, 40.444620
2024/02/08 06:41:03, 40.429033
2024/02/08 06:42:03, 40.419222
2024/02/08 06:43:03, 40.419520
2024/02/08 06:44:03, 40.437359
2024/02/08 06:45:03, 40.442844
2024/02/08 06:46:03, 40.455473
2024/02/08 06:47:03, 40.436630
2024/02/08 06:48:03, 40.400763
2024/02/08 06:49:03, 40.394331
2024/02/08 06:50:03, 40.407695
2024/02/08 06:51:03, 40.413324
2024/02/08 06:52:03, 40.413352
2024/02/08 06:53:03, 40.430269
2024/02/08 06:54:03, 40.414256
2024/02/08 06:55:03, 40.410621
2024/02/08 06:56:03, 40.416795
2024/02/08 06:57:03, 40.417173
2024/02/08 06:58:03, 40.440010
2024/02/08 06:59:03, 40.425413
2024/02/08 07:00:03, 40.413272
2024/02/08 07:01:03, 40.408744
2024/02/08 07:02:03, 40.412909
2024/02/08 07:03:03, 40.439476
2024/02/08 07:04:03, 40.434955
2024/02/08 07:05:03, 40.427518
2024/02/08 07:06:03, 40.433898
2024/02/08 07:07:03, 40.424933
2024/02/08 07:08:03, 40.440403
2024/02/08 07:09:03, 40.448616
2024/02/08 07:10:03, 40.453767
2024/02/08 07:11:03, 40.431908
2024/02/08 07:12:03, 40.407395
2024/02/08 07:13:03, 40.414995
2024/02/08 07:14:03, 40.413411
2024/02/08 07:15:03, 40.428419
2024/02/08 07:16:03, 40.438432
2024/02/08 07:17:03, 40.428215
2024/02/08 07:18:03, 40.412788
2024/02/08 07:19:03, 40.400235
2024/02/08 07:20:03, 40.411074
2024/02/08 07:21:03, 40.427003
2024/02/08 07:22:03, 40.423739
2024/02/08 07:23:03, 40.431766
2024/02/08 07:24:03, 40.436441
2024/02/08 07:25:03, 40.434163
2024/02/08 07:26:03, 40.410205
2024/02/08 07:27:03, 40.424990
2024/02/08 07:28:03, 40.414534
2024/02/08 07:29:03, 40.410237
2024/02/08 07:30:03, 40.405830
2024/02/08 07:31:03, 40.404232
2024/02/08 07:32:03, 40.395623
2024/02/08 07:33:03, 40.408075
2024/02/08 07:34:03, 40.391642
2024/02/08 07:35:03, 40.402382
2024/02/08 07:36:03, 40.405276
2024/02/08 07:37:03, 40.410513
2024/02/08 07:38:03, 40.421198
2024/02/08 07:39:03, 40.398157
2024/02/08 07:40:03, 40.395044
2024/02/08 07:41:03, 40.371601
2024/02/08 07:42:03, 40.353260
2024/02/08 07:43:03, 40.380327
2024/02/08 07:44:03, 40.394422
2024/02/08 07:45:03, 40.372936
2024/02/08 07:46:03, 40.368475
2024/02/08 07:47:03, 40.364066
2024/02/08 07:48:03, 40.378998
2024/02/08 07:49:03, 40.373484
2024/02/08 07:50:03, 40.343241
2024/02/08 07:51:03, 40.333788
2024/02/08 07:52:03, 40.345562
2024/02/08 07:53:03, 40.360062
2024/02/08 07:54:03, 40.335020
2024/02/08 07:55:03, 40.330835
2024/02/08 07:56:03, 40.328386
2024/02/08 07:57:03, 40.327927
2024/02/08 07:58:03, 40.359101
2024/02/08 07:59:03, 40.367498
2024/02/08 08:00:03, 40.372474
2024/02/08 08:01:04, 40.350228
2024/02/08 08:02:04, 40.352509
2024/02/08 08:03:04, 40.352627
2024/02/08 08:04:04, 40.371206
2024/02/08 08:05:04, 40.369411
2024/02/08 08:06:04, 40.369838
2024/02/08 08:07:04, 40.371009
2024/02/08 08:08:04, 40.387267
2024/02/08 08:09:04, 40.376877
2024/02/08 08:10:04, 40.376377
2024/02/08 08:11:04, 40.371078
2024/02/08 08:12:04, 40.360006
2024/02/08 08:13:04, 40.353357
2024/02/08 08:14:04, 40.356132
2024/02/08 08:15:04, 40.367550
2024/02/08 08:16:04, 40.361610
2024/02/08 08:17:04, 40.357527
2024/02/08 08:18:04, 40.355028
2024/02/08 08:19:04, 40.370611
2024/02/08 08:20:04, 40.373521
2024/02/08 08:21:04, 40.369151
2024/02/08 08:22:04, 40.378648
2024/02/08 08:23:04, 40.375809
2024/02/08 08:24:04, 40.379439
2024/02/08 08:25:04, 40.370375
2024/02/08 08:26:04, 40.372052
2024/02/08 08:27:04, 40.373095
2024/02/08 08:28:04, 40.379802
2024/02/08 08:29:04, 40.390032
2024/02/08 08:30:04, 40.391057
2024/02/08 08:31:04, 40.388060
2024/02/08 08:32:04, 40.370787
2024/02/08 08:33:04, 40.373023
2024/02/08 08:34:04, 40.373779
2024/02/08 08:35:04, 40.369520
2024/02/08 08:36:04, 40.378448
2024/02/08 08:37:04, 40.379156
2024/02/08 08:38:04, 40.376431
2024/02/08 08:39:04, 40.388544
2024/02/08 08:40:04, 40.371307
2024/02/08 08:41:04, 40.382675
2024/02/08 08:42:04, 40.369853
2024/02/08 08:43:04, 40.374257
2024/02/08 08:44:04, 40.391797
2024/02/08 08:45:04, 40.408581
2024/02/08 08:46:04, 40.384860
2024/02/08 08:47:04, 40.384157
2024/02/08 08:48:04, 40.371087
2024/02/08 08:49:04, 40.389602
2024/02/08 08:50:04, 40.379036
2024/02/08 08:51:04, 40.365742
2024/02/08 08:52:04, 40.356782
2024/02/08 08:53:04, 40.379345
2024/02/08 08:54:04, 40.362022
2024/02/08 08:55:04, 40.374844
2024/02/08 08:56:04, 40.364442
2024/02/08 08:57:04, 40.364168
2024/02/08 08:58:04, 40.368586
2024/02/08 08:59:04, 40.381984
2024/02/08 09:00:04, 40.389266
2024/02/08 09:01:04, 40.367051
2024/02/08 09:02:04, 40.361871
2024/02/08 09:03:04, 40.353371
2024/02/08 09:04:04, 40.362348
2024/02/08 09:05:04, 40.366856
2024/02/08 09:06:04, 40.381629
2024/02/08 09:07:04, 40.357503
2024/02/08 09:08:04, 40.366502
2024/02/08 09:09:04, 40.360472
2024/02/08 09:10:04, 40.375025
2024/02/08 09:11:04, 40.371521
2024/02/08 09:12:04, 40.359427
2024/02/08 09:13:04, 40.373310
2024/02/08 09:14:04, 40.378192
2024/02/08 09:15:04, 40.370512
2024/02/08 09:16:04, 40.368162
2024/02/08 09:17:04, 40.372642
2024/02/08 09:18:04, 40.363912
2024/02/08 09:19:04, 40.370133
2024/02/08 09:20:04, 40.377905
2024/02/08 09:21:04, 40.374624
2024/02/08 09:22:04, 40.374055
2024/02/08 09:23:04, 40.361784
2024/02/08 09:24:04, 40.375104
2024/02/08 09:25:04, 40.368429
2024/02/08 09:26:04, 40.358994
2024/02/08 09:27:04, 40.365678
2024/02/08 09:28:04, 40.367184
2024/02/08 09:29:04, 40.357722
2024/02/08 09:30:04, 40.362754
2024/02/08 09:31:04, 40.373358
2024/02/08 09:32:04, 40.353007
2024/02/08 09:33:04, 40.346188
2024/02/08 09:34:04, 40.350357
2024/02/08 09:35:04, 40.348279
2024/02/08 09:36:04, 40.346071
2024/02/08 09:37:04, 40.354683
2024/02/08 09:38:04, 40.344326
2024/02/08 09:39:04, 40.332094
2024/02/08 09:40:04, 40.339510
2024/02/08 09:41:04, 40.356603
2024/02/08 09:42:04, 40.368706
2024/02/08 09:43:04, 40.357339
2024/02/08 09:44:04, 40.360357
2024/02/08 09:45:04, 40.378405
2024/02/08 09:46:04, 40.391694
2024/02/08 09:47:04, 40.393526
2024/02/08 09:48:04, 40.390655
2024/02/08 09:49:04, 40.382227
2024/02/08 09:50:04, 40.367583
2024/02/08 09:51:04, 40.363009
2024/02/08 09:52:04, 40.365684
2024/02/08 09:53:04, 40.366093
2024/02/08 09:54:04, 40.377929
2024/02/08 09:55:04, 40.372628
2024/02/08 09:56:04, 40.383555
2024/02/08 09:57:04, 40.377982
2024/02/08 09:58:04, 40.369625
2024/02/08 09:59:04, 40.344915
2024/02/08 10:00:04, 40.371903
2024/02/08 10:01:05, 40.364519
2024/02/08 10:02:05, 40.396390
2024/02/08 10:03:05, 40.399034
2024/02/08 10:04:05, 40.407807
2024/02/08 10:05:05, 40.400180
2024/02/08 10:06:05, 40.405938
2024/02/08 10:07:05, 40.402567
2024/02/08 10:08:05, 40.402499
2024/02/08 10:09:05, 40.390284
2024/02/08 10:10:05, 40.398833
2024/02/08 10:11:05, 40.397393
2024/02/08 10:12:05, 40.400685
2024/02/08 10:13:05, 40.401752
2024/02/08 10:14:05, 40.398709
2024/02/08 10:15:05, 40.386687
2024/02/08 10:16:05, 40.390783
2024/02/08 10:17:05, 40.386110
2024/02/08 10:18:05, 40.390095
2024/02/08 10:19:05, 40.391105
2024/02/08 10:20:05, 40.408452
2024/02/08 10:21:05, 40.410615
2024/02/08 10:22:05, 40.394535
2024/02/08 10:23:05, 40.396135
2024/02/08 10:24:05, 40.391495
2024/02/08 10:25:05, 40.389166
2024/02/08 10:26:05, 40.371816
2024/02/08 10:27:05, 40.369738
2024/02/08 10:28:05, 40.361910
2024/02/08 10:29:05, 40.368756
2024/02/08 10:30:05, 40.384116
2024/02/08 10:31:05, 40.383435
2024/02/08 10:32:05, 40.400666
2024/02/08 10:33:05, 40.390571
2024/02/08 10:34:05, 40.394056
2024/02/08 10:35:05, 40.393749
2024/02/08 10:36:05, 40.376177
2024/02/08 10:37:05, 40.368503
2024/02/08 10:38:05, 40.366502
2024/02/08 10:39:05, 40.369139
2024/02/08 10:40:05, 40.378540
2024/02/08 10:41:05, 40.391884
2024/02/08 10:42:05, 40.379663
2024/02/08 10:43:05, 40.377491
2024/02/08 10:44:05, 40.396194
2024/02/08 10:45:05, 40.379837
2024/02/08 10:46:05, 40.391764
2024/02/08 10:47:05, 40.407488
2024/02/08 10:48:05, 40.373792
2024/02/08 10:49:05, 40.348126
2024/02/08 10:50:05, 40.351085
2024/02/08 10:51:05, 40.340447
2024/02/08 10:52:05, 40.357519
2024/02/08 10:53:05, 40.349894
2024/02/08 10:54:05, 40.353141
2024/02/08 10:55:05, 40.359303
2024/02/08 10:56:05, 40.360649
2024/02/08 10:57:05, 40.357618
2024/02/08 10:58:05, 40.359712
2024/02/08 10:59:05, 40.353290
2024/02/08 11:00:05, 40.363835
2024/02/08 11:01:05, 40.374146
2024/02/08 11:02:05, 40.370248
2024/02/08 11:03:05, 40.368983
2024/02/08 11:04:05, 40.366116
2024/02/08 11:05:05, 40.379920
2024/02/08 11:06:05, 40.367689
2024/02/08 11:07:05, 40.360760
2024/02/08 11:08:05, 40.354873
2024/02/08 11:09:05, 40.361620
2024/02/08 11:10:05, 40.357953
2024/02/08 11:11:05, 40.357010
2024/02/08 11:12:05, 40.377950
2024/02/08 11:13:05, 40.362372
2024/02/08 11:14:05, 40.367159
2024/02/08 11:15:05, 40.360134
2024/02/08 11:16:05, 40.362890
2024/02/08 11:17:05, 40.370572
2024/02/08 11:18:05, 40.354259
2024/02/08 11:19:05, 40.349272
2024/02/08 11:20:05, 40.348336
2024/02/08 11:21:05, 40.363557
2024/02/08 11:22:05, 40.368639
2024/02/08 11:23:05, 40.357545
2024/02/08 11:24:05, 40.354081
2024/02/08 11:25:05, 40.357340
2024/02/08 11:26:05, 40.355772
2024/02/08 11:27:05, 40.338891
2024/02/08 11:28:05, 40.331103
2024/02/08 11:29:05, 40.325165
2024/02/08 11:30:05, 40.324931
2024/02/08 11:31:05, 40.355161
2024/02/08 11:32:05, 40.353104
2024/02/08 11:33:05, 40.352652
2024/02/08 11:34:05, 40.349452
2024/02/08 11:35:05, 40.352673
2024/02/08 11:36:05, 40.357187
2024/02/08 11:37:05, 40.355469
2024/02/08 11:38:05, 40.348592
2024/02/08 11:39:05, 40.342454
2024/02/08 11:40:05, 40.352242
2024/02/08 11:41:05, 40.373177
2024/02/08 11:42:05, 40.338949
2024/02/08 11:43:05, 40.354108
2024/02/08 11:44:05, 40.361022
2024/02/08 11:45:05, 40.365035
2024/02/08 11:46:05, 40.375839
2024/02/08 11:47:05, 40.374118
2024/02/08 11:48:05, 40.364274
2024/02/08 11:49:05, 40.366150
2024/02/08 11:50:05, 40.358533
2024/02/08 11:51:05, 40.362841
2024/02/08 11:52:05, 40.375177
2024/02/08 11:53:05, 40.365708
2024/02/08 11:54:05, 40.369741
2024/02/08 11:55:05, 40.356560
2024/02/08 11:56:05, 40.363554
2024/02/08 11:57:05, 40.380597
2024/02/08 11:58:05, 40.383079
2024/02/08 11:59:05, 40.377662
2024/02/08 12:00:05, 40.377047
2024/02/08 12:01:06, 40.373212
2024/02/08 12:02:06, 40.387448
2024/02/08 12:03:06, 40.395485
2024/02/08 12:04:06, 40.397796
2024/02/08 12:05:06, 40.392823
2024/02/08 12:06:06, 40.397494
2024/02/08 12:07:06, 40.406227
2024/02/08 12:08:06, 40.372683
2024/02/08 12:09:06, 40.383860
2024/02/08 12:10:06, 40.385904
2024/02/08 12:11:06, 40.389311
2024/02/08 12:12:06, 40.385873
2024/02/08 12:13:06, 40.391421
2024/02/08 12:14:06, 40.382105
2024/02/08 12:15:06, 40.360381
2024/02/08 12:16:06, 40.357373
2024/02/08 12:17:06, 40.379610
2024/02/08 12:18:06, 40.397673
2024/02/08 12:19:06, 40.389681
2024/02/08 12:20:06, 40.386135
2024/02/08 12:21:06, 40.393585
2024/02/08 12:22:06, 40.393632
2024/02/08 12:23:06, 40.372466
2024/02/08 12:24:06, 40.383295
2024/02/08 12:25:06, 40.379794
2024/02/08 12:26:06, 40.398308
2024/02/08 12:27:06, 40.408374
2024/02/08 12:28:06, 40.409567
2024/02/08 12:29:06, 40.395340
2024/02/08 12:30:06, 40.402855
2024/02/08 12:31:06, 40.422016
2024/02/08 12:32:06, 40.423399
2024/02/08 12:33:06, 40.423757
2024/02/08 12:34:06, 40.437152
2024/02/08 12:35:06, 40.449049
2024/02/08 12:36:06, 40.445550
2024/02/08 12:37:06, 40.416583
2024/02/08 12:38:06, 40.397008
2024/02/08 12:39:06, 40.411282
2024/02/08 12:40:06, 40.420731
2024/02/08 12:41:06, 40.434124
2024/02/08 12:42:06, 40.411020
2024/02/08 12:43:06, 40.425601
2024/02/08 12:44:06, 40.415924
2024/02/08 12:45:06, 40.414886
2024/02/08 12:46:06, 40.413697
2024/02/08 12:47:06, 40.428917
2024/02/08 12:48:06, 40.433244
2024/02/08 12:49:06, 40.418754
2024/02/08 12:50:06, 40.411522
2024/02/08 12:51:06, 40.416740
2024/02/08 12:52:06, 40.432970